EW8836 Weather Reports


Display with metric or nautical units.
time (UTC)temp
F
wind
direction
speed
MPH
gust
MPH
rain 1hr
in
rain 24hr
in
rain mn
in
humidity
%
barometer
mb
20260901061555 52 200 0.0 0.0 0.00 0.00 0.00 98 1021.7
20260901060053 52 188 0.0 1.0 0.00 0.00 0.00 98 1021.6
20260901054604 51 189 0.0 1.0 0.00 0.00 0.00 98 1021.5
20260901053119 51 202 0.0 1.0 0.00 0.00 0.00 97 1021.5
20260901051550 51 198 0.0 0.0 0.00 0.00 0.00 97 1021.5
20260901050059 51 205 0.0 2.0 0.00 0.00 0.00 97 1021.5
20260901044559 52 201 0.0 3.0 0.00 0.00 0.00 97 1021.3
20260901043101 52 194 0.0 1.0 0.00 0.00 0.00 97 1021.1
20260901041609 52 205 0.0 3.0 0.00 0.00 0.00 97 1021.1
20260901040104 52 203 0.0 0.0 0.00 0.00 0.00 97 1021.1
20260901034544 53 192 0.0 0.0 0.00 0.00 0.00 96 1021.1
20260901033120 53 165 0.0 0.0 0.00 0.00 0.00 96 1021.1
20260901031612 53 182 0.0 0.0 0.00 0.00 0.00 96 1021.2
20260901030100 54 191 0.0 0.0 0.00 0.00 0.00 96 1021.2
20260901024605 54 182 0.0 0.0 0.00 0.01 0.00 95 1021.4
20260901023106 54 167 0.0 0.0 0.00 0.01 0.00 95 1021.4
20260901021551 55 190 0.0 1.0 0.00 0.01 0.00 95 1021.6
20260901020054 55 187 0.0 1.0 0.00 0.01 0.00 95 1021.6
20260901014549 55 186 0.0 1.0 0.00 0.01 0.00 95 1021.5
20260901013050 56 167 0.0 0.0 0.00 0.01 0.00 95 1021.5
20260901011545 55 186 0.0 0.0 0.00 0.01 0.00 95 1021.3
20260901010108 55 186 0.0 0.0 0.00 0.01 0.00 95 1021.3
20260901004542 56 186 0.0 0.0 0.00 0.01 0.00 94 1021.3
20260901003100 57 186 0.0 0.0 0.00 0.01 0.00 93 1021.3
20260901001608 57 186 0.0 1.0 0.00 0.01 0.00 93 1021.4
20260901000049 58 176 0.0 1.0 0.00 0.01 0.00 92 1021.3
20260831234605 58 217 0.0 1.0 0.00 0.01 0.00 92 1021.4
20260831233105 59 221 0.0 1.0 0.00 0.01 0.00 92 1021.5
20260831231546 59 259 0.0 1.0 0.00 0.01 0.00 92 1021.5
20260831230141 59 248 0.0 2.0 0.00 0.01 0.00 92 1021.4
20260831224552 59 251 0.0 0.0 0.00 0.01 0.00 91 1021.4
20260831223106 59 248 0.0 1.0 0.00 0.01 0.00 91 1021.4
20260831221603 60 243 0.0 1.0 0.00 0.01 0.00 90 1021.4
20260831220047 60 228 0.0 0.0 0.00 0.01 0.00 90 1021.2
20260831214555 61 227 0.0 0.0 0.00 0.01 0.01 88 1021.3
20260831213105 61 243 0.0 1.0 0.00 0.01 0.01 88 1021.2
20260831211602 61 220 0.0 1.0 0.00 0.01 0.01 88 1021.3
20260831210048 62 223 0.0 1.0 0.00 0.01 0.01 87 1021.2
20260831204556 62 223 0.0 1.0 0.00 0.01 0.01 87 1021.1
20260831203101 62 219 0.0 0.0 0.00 0.01 0.01 87 1021.1
20260831201608 62 220 0.0 1.0 0.00 0.01 0.01 85 1021.0
20260831200106 63 190 0.0 2.0 0.00 0.01 0.01 83 1020.9
20260831194638 64 182 0.0 0.0 0.00 0.01 0.01 80 1020.7
20260831193108 65 185 0.0 0.0 0.00 0.01 0.01 79 1020.6
20260831190144 66 264 0.0 1.0 0.00 0.01 0.01 77 1020.0
20260831184616 67 264 0.0 0.0 0.00 0.06 0.01 76 1019.9
20260831183100 69 264 0.0 1.0 0.00 0.06 0.01 73 1019.8
20260831181551 70 257 0.0 1.0 0.00 0.06 0.01 70 1019.6
20260831180055 71 268 0.0 2.0 0.00 0.06 0.01 68 1019.6
20260831174609 74 169 0.0 3.0 0.00 0.06 0.01 64 1019.5
20260831173100 74 126 0.0 6.0 0.00 0.06 0.01 63 1019.4
20260831171553 76 262 1.0 8.0 0.00 0.06 0.01 58 1019.4
20260831170131 76 79 2.0 9.0 0.00 0.06 0.01 56 1019.4
20260831164548 76 285 3.0 8.0 0.00 0.06 0.01 54 1019.3
20260831163059 75 309 2.0 7.0 0.00 0.06 0.01 53 1019.3
20260831161614 75 180 2.0 5.0 0.00 0.06 0.01 53 1019.4
20260831160103 76 276 2.0 7.0 0.00 0.06 0.01 51 1019.4
20260831154601 78 250 3.0 7.0 0.00 0.06 0.01 53 1019.5
20260831153051 77 165 3.0 8.0 0.00 0.06 0.01 54 1019.6
20260831151605 75 229 3.0 10.0 0.00 0.06 0.01 55 1019.7
20260831150104 75 298 2.0 7.0 0.00 0.06 0.01 53 1019.7
20260831144548 77 245 4.0 10.0 0.00 0.06 0.01 53 1019.5
20260831143057 77 210 3.0 12.0 0.00 0.06 0.01 52 1019.6
20260831141559 79 226 5.0 11.0 0.00 0.06 0.01 52 1019.6
20260831140055 76 207 4.0 9.0 0.00 0.06 0.01 56 1019.7
20260831134556 75 248 4.0 11.0 0.00 0.06 0.01 59 1019.7
20260831133107 75 206 4.0 13.0 0.00 0.06 0.01 58 1019.8
20260831131608 77 193 5.0 12.0 0.00 0.06 0.01 53 1019.8
20260831130019 77 231 6.0 13.0 0.00 0.06 0.01 57 1019.7
20260831124600 73 281 4.0 11.0 0.00 0.06 0.01 63 1019.8
20260831123056 74 257 5.0 11.0 0.00 0.06 0.01 59 1019.8
20260831121547 76 175 4.0 11.0 0.00 0.06 0.01 59 1019.7
20260831120016 76 256 4.0 12.0 0.00 0.06 0.01 60 1019.8
20260831114604 76 255 4.0 11.0 0.00 0.06 0.01 63 1019.8
20260831113101 75 276 2.0 10.0 0.00 0.06 0.01 64 1019.8
20260831111558 73 164 3.0 10.0 0.00 0.06 0.01 63 1019.9
20260831110104 74 218 6.0 10.0 0.00 0.06 0.01 60 1020.0
20260831104557 74 184 5.0 13.0 0.00 0.06 0.01 63 1019.9
20260831103108 73 254 4.0 11.0 0.00 0.06 0.01 67 1019.9
20260831101556 71 250 5.0 10.0 0.00 0.06 0.01 71 1019.8
20260831100048 71 244 5.0 11.0 0.00 0.06 0.01 71 1019.8
20260831094557 70 265 5.0 12.0 0.00 0.06 0.01 74 1019.7
20260831093051 68 69 5.0 14.0 0.00 0.06 0.01 76 1019.8
20260831091543 69 210 4.0 12.0 0.00 0.06 0.01 78 1019.7
20260831090108 67 250 4.0 12.0 0.00 0.06 0.01 82 1019.7
20260831084602 67 264 3.0 9.0 0.00 0.06 0.01 83 1019.7
20260831083045 64 225 2.0 7.0 0.00 0.06 0.01 88 1019.5
20260831081558 64 200 1.0 7.0 0.00 0.06 0.01 87 1019.5
20260831080112 64 257 2.0 6.0 0.00 0.06 0.01 86 1019.4
20260831074556 63 259 1.0 6.0 0.00 0.06 0.01 87 1019.3
20260831073053 63 225 3.0 8.0 0.00 0.06 0.01 87 1019.1
20260831071602 63 271 2.0 7.0 0.00 0.06 0.01 87 1018.9
20260831070057 62 270 3.0 9.0 0.00 0.06 0.01 87 1018.7
20260831064547 60 182 0.0 6.0 0.00 0.06 0.01 91 1018.7
20260831063054 59 238 1.0 6.0 0.00 0.06 0.01 91 1018.6